Regional Weather Roundup
Issued by NWS

Home | Current Version | Previous Version | Text Only | Print | Product List | Glossary On
Versions: 1 2 3 4 5 6 7 8 9 10 11 12 13 14 15 16 17 18 19 20 21 22 23 24 25 26 27 28 29 30 31 32 33 34 35 36 37 38 39 40 41 42 43 44 45 46 47 48 49 50
000
ASCA42 TJSJ 020510
RWRPR
PUERTO RICO/U.S. VIRGIN ISLANDS HOURLY WEATHER ROUNDUP
NATIONAL WEATHER SERVICE SAN JUAN PR
100 AM AST MON MAR 02 2015

PRZ001-004-020600-
PUERTO RICO

CITY           SKY/WX    TMP DP  RH WIND       PRES   REMARKS
SAN JUAN LMM   PTCLDY    75  70  83 E9        30.11F
PONCE          PTCLDY    72  64  78 CALM      30.06F
AGUADILLA      MOCLDY    73  68  83 E17G23    30.13F
CEIBA          MOCLDY    77  70  78 NE10      30.12F
$$

PRZ006-007-020600-
U.S. VIRGIN ISLANDS

CITY           SKY/WX    TMP DP  RH WIND       PRES   REMARKS
CHARLOTTE AMA  PTCLDY    75  68  78 NE10      30.09
$$

HOURLY WEATHER ROUNDUP FOR THE NEWS MEDIA

CITY           SKY/WX    TMP DP  RH WIND       PRES   REMARKS
ORLANDO        FOG       68  66  93 NE6       30.33S VSB 1/2
NEW YORK       CLOUDY    30  25  81 SW6       30.16F WCI  24
NEWARK         CLOUDY    27  24  89 W6        30.16F FOG     WCI  20
CHICAGO        CLEAR     19  10  68 W13       30.34R WCI   6
HARTFORD       LGT SNOW  31  30  96 W5        30.10F FOG     WCI  26
BOSTON         LGT SNOW  29  26  89 SW10      30.12F FOG     WCI  20
DALLAS         CLOUDY    37  34  87 N9        30.39S WCI  31
PHILADELPHIA   CLOUDY    32  29  88 SW7       30.18F FOG     WCI  26
LOS ANGELES    MOCLDY    55  47  74 CALM      29.94S
WASHINGTON DC  FOG       31  30  96 W3        30.19F VSB 1/2


USA.gov is the U.S. government's official web portal to all federal, state and local government web resources and services.